Regional Weather Roundup
Issued by NWS Mobile, AL

Home | Current Version | Previous Version | Text Only | Print | Product List | Glossary On
Versions: 1 2 3 4 5 6 7 8 9 10 11 12 13 14 15 16 17 18 19 20 21 22 23 24 25 26 27 28 29 30 31 32 33 34 35 36 37 38 39 40 41 42 43 44 45 46 47 48 49 50
815
ASUS44 KMOB 202312
RWRMOB
REGIONAL WEATHER ROUNDUP
NATIONAL WEATHER SERVICE MOBILE AL
500 PM CST MON FEB 20 2017

NOTE: "FAIR" INDICATES FEW OR NO CLOUDS BELOW 12,000 FEET WITH NO
      SIGNIFICANT WEATHER AND/OR OBSTRUCTIONS TO VISIBILITY.

  * THESE STATIONS ARE PART OF THE UNIVERSITY OF SOUTH ALABAMA
    MESONET AND ARE NOT UNDER NWS OR FAA QUALITY CONTROL.

ALZ061>064-210000-
COASTAL ALABAMA

CITY           SKY/WX    TMP DP  RH WIND       PRES   REMARKS
MOBILE REG APT CLOUDY    72  60  66 SE12      30.05S
BROOKLEY FIELD PTCLDY    72  61  68 S9        30.06F
USA CAMPUS*    NOT AVBL
DOG RIVER*     NOT AVBL


CITY           SKY/WX    TMP DP  RH WIND       PRES   REMARKS
GULF SHORES    CLOUDY    69  67  94 E10G22    30.07S

$$

ALZ051>060-210000-
INTERIOR SOUTHWEST AND SOUTH CENTRAL ALABAMA

CITY           SKY/WX    TMP DP  RH WIND       PRES   REMARKS
GREENVILLE     PTCLDY    77  50  38 SE5       30.05F
EVERGREEN      PTCLDY    77  55  46 SW8       30.05S
ATMORE*        NOT AVBL
ANDALUSIA/OPP  PTCLDY    78  55  44 S6        30.06S
ANDALUSIA*     NOT AVBL
FLORALA APT    PTCLDY    74  56  53 SW10      30.09S
FLORALA*       NOT AVBL

$$

FLZ001>006-210000-
WESTERN FLORIDA PANHANDLE

CITY           SKY/WX    TMP DP  RH WIND       PRES   REMARKS
PENSACOLA      PTCLDY    70  64  81 SE12      30.07F
NAS PENSACOLA  MOCLDY    69  65  86 SE10      30.07S
MILTON         LGT RAIN  73  57  57 S9        30.07S
WHTNG S FIELD  CLOUDY    75  59  57 S10       30.07F


CITY           SKY/WX    TMP DP  RH WIND       PRES   REMARKS
JAY*           NOT AVBL
DUKE FIELD     PTCLDY    71  58  62 S8        30.07F
CRESTVIEW      CLOUDY    73  58  59 S8        30.09F
VALPARAISO     MOCLDY    70  61  73 SE7       30.09S
DESTIN         PTCLDY    71  66  84 SE6       30.09S

$$

MSZ076-079-210000-
INTERIOR SOUTHEAST MISSISSIPPI

CITY           SKY/WX    TMP DP  RH WIND       PRES   REMARKS
LEAKESVILLE*   NOT AVBL
AGRICOLA*      NOT AVBL

$$

MARINE OBSERVATIONS

STATION/POSITION TIME  TEMP    WIND        PRES    WAVE
                       AIR SEA DIR/SP/G            HT/PER
                 (UTC) (F)     (DEG/KT/KT) (MB)    (FT/S)
PASCAGOULA       2248   69     130/ 11/ 15 1017.1S
PETIT BOIS ISLND 2248   68     110/ 10/ 14 1017.9S
GRAND BAY        2145   69     120/ 11     1018.0F
KATRINA CUT      2230          120/ 13     1016.9F
CEDAR POINT      2230   70     130/ 11     1017.3F
E DAUPHIN ISLAND 2200   69     110/ 14/ 16 1017.3F
MIDDLE BAY LIGHT 2230   68     130/ 13     1018.0R
USCG MOBILE BAY  2248   72 65  180/  6/ 11 1018.2F
STATE DOCKS      2248                      1017.5S
MEAHER PARK      2230   71     180/  7     1017.6F
WEEKS BAY        2145   76                   N/A
FORT MORGAN      2248   69     120/ 15/ 18   N/A
12 S ORANGE BCH  2250   69 69  120/ 12/ 14 1017.8F   2/ 4
PENSACOLA BAY    2248          100/  1/  4 1018.5F
67 S FORT MORGAN 2230   71     110/ 14     1017.3R

$$

SELECTED LOCATIONS ACROSS THE REGION

CITY           SKY/WX    TMP DP  RH WIND       PRES   REMARKS
NEW ORLEANS    CLOUDY    74  67  78 SE14      29.97F
GULFPORT       MOCLDY    71  65  81 SE15      30.03S
PASCAGOULA AP  MOCLDY    71  62  73 SE9       30.04S
PASCAGOULA*    NOT AVBL
HATTIESBURG    PTCLDY    76  49  38 SE10      30.02S
LAUREL         CLOUDY    77  50  38 S13       30.03S
MERIDIAN       CLEAR     80  54  40 E8        30.00F
JACKSON        MOCLDY    77  53  43 SE7       29.97F
MONTGOMERY     MOCLDY    75  53  46 E6        30.06F
TROY           CLOUDY    75  51  43 S6        30.08S
ASHFORD*       NOT AVBL
DOTHAN         PTCLDY    75  57  53 E5        30.11S
PANAMA CITY    CLEAR     72  57  59 SE6       30.08F

$$





USA.gov is the U.S. government's official web portal to all federal, state and local government web resources and services.